St. George, AK

1:27 PM AKDT on May 21, 2018 (GMT -0800)
Saint George

Weather History for PAPB - February, 2013

Change the Weather History Date:

Wednesday, February 13, 2013

  Actual Average Record
Temperature  
Mean Temperature 11 °F -  
Max Temperature 16 °F 29 °F 39 °F (2018)
Min Temperature 6 °F 23 °F 3 °F (2008)
Degree Days  
Heating Degree Days 54    
Moisture  
Dew Point 6 °F    
Average Humidity 82    
Maximum Humidity 92    
Minimum Humidity 62    
Precipitation  
Precipitation 0.00 in - - ()
Sea Level Pressure  
Sea Level Pressure 29.76 in    
Wind  
Wind Speed 17 mph (North)    
Max Wind Speed 28 mph    
Max Gust Speed 34 mph    
Visibility 3 miles    
Events Fog , Snow    
Averages and records for this station are not official NWS values.
T = Trace of Precipitation, MM = Missing Value Source: NWS Daily Summary

Daily Weather History Graph

Daily Weather History Graph

Search for Another Location

Airport or City:

Astronomy

Feb. 13, 2013 Rise Set
Actual Time 9:48 AM AKST 7:17 PM AKST
Civil Twilight 9:09 AM AKST 7:57 PM AKST
Nautical Twilight 8:25 AM AKST 8:41 PM AKST
Astronomical Twilight 7:41 AM AKST 9:25 PM AKST
Moon 10:30 AM AKST (2/13) No Moon Set
Length of Visible Light 10h 48m
Length of Day
9h 28m
Waxing Crescent, 15% of the Moon is Illuminated
Feb 13
Waxing Crescent
Feb 17
First Quarter
Feb 25
Full
Mar 4
Last Quarter
Mar 11
New

Hourly Weather History & Observations

Time (AKST) Temp. Windchill Dew Point Humidity Pressure Visibility Wind Dir Wind Speed Gust Speed Precip Events Conditions
12:53 AM 16.0 °F 1.1 °F 7.0 °F 68% 29.69 in 8.0 mi North 15.0 mph 19.6 mph 0.00 in Snow Light Snow
1:39 AM 15.8 °F 4.2 °F 5.0 °F 62% 29.72 in 10.0 mi North 9.2 mph 24.2 mph 0.00 in   Overcast
1:53 AM 16.0 °F 4.4 °F 6.1 °F 65% 29.69 in 10.0 mi NNW 9.2 mph - 0.00 in   Overcast
2:10 AM 15.8 °F -0.2 °F 8.6 °F 73% 29.72 in 10.0 mi NNW 17.3 mph - N/A   Overcast
2:53 AM 16.0 °F 4.4 °F 7.0 °F 68% 29.69 in 10.0 mi North 9.2 mph 23.0 mph N/A   Overcast
3:53 AM 15.1 °F 3.3 °F 8.1 °F 74% 29.68 in 6.0 mi North 9.2 mph 16.1 mph 0.00 in Snow Light Snow
4:53 AM 14.0 °F -2.5 °F 9.0 °F 80% 29.67 in 5.0 mi North 17.3 mph 26.5 mph 0.00 in Snow Light Snow
5:53 AM 14.0 °F 0.5 °F 9.0 °F 80% 29.67 in 10.0 mi North 11.5 mph 25.3 mph 0.00 in   Overcast
6:37 AM 14.0 °F -2.0 °F 8.6 °F 79% 29.70 in 9.0 mi NNE 16.1 mph 24.2 mph N/A   Overcast
6:53 AM 14.0 °F -2.0 °F 9.0 °F 80% 29.68 in 10.0 mi NNE 16.1 mph - N/A   Overcast
7:09 AM 14.0 °F -3.0 °F 8.6 °F 79% 29.71 in 7.0 mi North 18.4 mph 25.3 mph 0.00 in   Overcast
7:53 AM 14.0 °F -2.5 °F 9.0 °F 80% 29.68 in 5.0 mi North 17.3 mph 28.8 mph 0.00 in Snow Light Snow
8:53 AM 14.0 °F -5.1 °F 10.0 °F 84% 29.69 in 4.0 mi NNE 24.2 mph 29.9 mph 0.00 in   Overcast
9:50 AM 15.8 °F -1.9 °F 10.4 °F 79% 29.73 in 3.0 mi North 21.9 mph 32.2 mph 0.00 in Snow Light Snow
9:51 AM 15.1 °F -2.9 °F 10.9 °F 84% 29.70 in 3.0 mi NNE 21.9 mph 31.1 mph 0.00 in Snow Light Snow
10:45 AM 15.8 °F -2.7 °F 10.4 °F 79% 29.74 in 2.0 mi North 24.2 mph 31.1 mph 0.00 in Snow Light Snow
10:53 AM 14.0 °F -3.4 °F 10.9 °F 88% 29.72 in 3.0 mi North 19.6 mph 29.9 mph 0.00 in Snow Light Snow
11:21 AM 14.0 °F -3.9 °F 10.4 °F 86% 29.76 in 3.0 mi North 20.7 mph 28.8 mph 0.00 in Snow Light Snow
11:43 AM 14.0 °F -4.7 °F 10.4 °F 86% 29.76 in 2.5 mi North 23.0 mph 28.8 mph 0.00 in Snow Light Snow
11:53 AM 12.9 °F -4.4 °F 10.0 °F 88% 29.74 in 4.0 mi North 18.4 mph 26.5 mph 0.00 in Snow Light Snow
12:26 PM 12.2 °F -5.3 °F 10.4 °F 92% 29.77 in 1.8 mi North 18.4 mph - 0.00 in Snow Light Snow
12:38 PM 12.2 °F -4.8 °F 10.4 °F 92% 29.77 in 1.0 mi North 17.3 mph 27.6 mph 0.00 in Snow Light Snow
12:53 PM 12.0 °F -6.0 °F 9.0 °F 88% 29.74 in 1.2 mi North 19.6 mph 25.3 mph 0.00 in Snow Light Snow
1:15 PM 12.2 °F -6.7 °F 8.6 °F 85% 29.77 in 2.0 mi North 21.9 mph 31.1 mph 0.00 in Snow Light Snow
1:24 PM 12.2 °F -6.3 °F 8.6 °F 85% 29.77 in 1.8 mi North 20.7 mph 28.8 mph 0.00 in   Overcast
1:32 PM 10.4 °F -7.2 °F 8.6 °F 92% 29.77 in 3.0 mi North 17.3 mph 28.8 mph 0.00 in   Overcast
1:42 PM 12.2 °F -7.5 °F 8.6 °F 85% 29.77 in 2.5 mi North 24.2 mph 27.6 mph 0.00 in Snow Light Snow
1:53 PM 10.9 °F -7.0 °F 8.1 °F 88% 29.75 in 3.0 mi North 18.4 mph 28.8 mph 0.00 in   Overcast
2:19 PM 10.4 °F -9.5 °F 6.8 °F 85% 29.77 in 2.5 mi North 23.0 mph 28.8 mph N/A   Overcast
2:51 PM 10.4 °F -10.7 °F 6.8 °F 85% 29.77 in 1.8 mi North 26.5 mph 32.2 mph 0.00 in   Overcast
2:53 PM 10.0 °F -10.4 °F 6.1 °F 84% 29.74 in 1.8 mi North 24.2 mph 32.2 mph 0.00 in   Overcast
3:01 PM 10.4 °F -9.1 °F 6.8 °F 85% 29.78 in 2.5 mi North 21.9 mph - 0.00 in   Mostly Cloudy
3:17 PM 8.6 °F -12.7 °F 5.0 °F 85% 29.77 in 1.5 mi North 25.3 mph 32.2 mph 0.00 in   Mostly Cloudy
3:35 PM 8.6 °F -13.4 °F 6.8 °F 92% 29.77 in 0.8 mi North 27.6 mph - 0.00 in Snow Light Snow
3:53 PM 9.0 °F -11.4 °F 7.0 °F 92% 29.75 in 0.5 mi North 23.0 mph - 0.00 in Fog , Snow Light Snow
4:21 PM 8.6 °F -12.3 °F 5.0 °F 85% 29.78 in 1.0 mi North 24.2 mph 32.2 mph 0.00 in   Overcast
4:32 PM 8.6 °F -11.9 °F 5.0 °F 85% 29.78 in 1.2 mi North 23.0 mph 34.5 mph 0.00 in   Overcast
4:46 PM 8.6 °F -10.5 °F 5.0 °F 85% 29.79 in 2.5 mi North 19.6 mph 26.5 mph 0.00 in   Overcast
4:53 PM 9.0 °F -12.2 °F 5.0 °F 84% 29.75 in 1.0 mi North 25.3 mph 29.9 mph 0.00 in Snow Light Snow
5:01 PM 8.6 °F -10.5 °F 5.0 °F 85% 29.78 in 0.8 mi North 19.6 mph 29.9 mph 0.00 in Snow Light Snow
5:05 PM 8.6 °F -11.4 °F 5.0 °F 85% 29.79 in 1.2 mi NNE 21.9 mph 27.6 mph 0.00 in Snow Light Snow
5:19 PM 8.6 °F -11.0 °F 3.2 °F 79% 29.79 in 2.0 mi North 20.7 mph 28.8 mph 0.00 in   Overcast
5:32 PM 8.6 °F -11.0 °F 3.2 °F 79% 29.79 in 4.0 mi North 20.7 mph 27.6 mph 0.00 in   Haze
5:53 PM 8.1 °F -11.2 °F 3.9 °F 83% 29.77 in 3.0 mi North 19.6 mph 26.5 mph 0.00 in   Overcast
6:09 PM 8.6 °F -10.5 °F 5.0 °F 85% 29.80 in 1.8 mi North 19.6 mph 26.5 mph 0.00 in Snow Light Snow
6:15 PM 8.6 °F -9.5 °F 5.0 °F 85% 29.80 in 1.0 mi North 17.3 mph 26.5 mph 0.00 in Snow Light Snow
6:25 PM 8.6 °F -8.9 °F 3.2 °F 79% 29.80 in 2.0 mi North 16.1 mph 28.8 mph 0.00 in Snow Light Snow
6:39 PM 8.6 °F -7.7 °F 5.0 °F 85% 29.80 in 1.2 mi North 13.8 mph 26.5 mph 0.00 in Snow Light Snow
6:53 PM 8.1 °F -10.2 °F 3.9 °F 83% 29.77 in 1.8 mi North 17.3 mph 27.6 mph 0.00 in Snow Light Snow
7:16 PM 8.6 °F -11.0 °F 3.2 °F 79% 29.81 in 2.5 mi North 20.7 mph 29.9 mph 0.00 in   Haze
7:24 PM 8.6 °F -8.9 °F 3.2 °F 79% 29.81 in 3.0 mi North 16.1 mph 27.6 mph 0.00 in   Haze
7:41 PM 8.6 °F -8.3 °F 3.2 °F 79% 29.82 in 2.5 mi NNW 15.0 mph 25.3 mph 0.00 in   Overcast
7:48 PM 8.6 °F -8.9 °F 3.2 °F 79% 29.82 in 4.0 mi North 16.1 mph 27.6 mph 0.00 in   Haze
7:53 PM 8.1 °F -7.7 °F 3.0 °F 80% 29.79 in 4.0 mi NNW 12.7 mph 28.8 mph 0.00 in   Haze
8:15 PM 8.6 °F -9.5 °F 5.0 °F 85% 29.82 in 3.0 mi North 17.3 mph 26.5 mph N/A   Overcast
8:29 PM 8.6 °F -6.3 °F 3.2 °F 79% 29.82 in 6.0 mi North 11.5 mph 20.7 mph N/A   Haze
8:46 PM 8.6 °F -7.7 °F 5.0 °F 85% 29.81 in 1.8 mi North 13.8 mph 31.1 mph 0.00 in Snow Light Snow
8:53 PM 9.0 °F -9.5 °F 5.0 °F 84% 29.78 in 1.0 mi North 18.4 mph 24.2 mph 0.00 in Snow Light Snow
9:03 PM 8.6 °F -10.5 °F 5.0 °F 85% 29.81 in 1.2 mi NNW 19.6 mph 27.6 mph 0.00 in Snow Light Snow
9:10 PM 8.6 °F -11.0 °F 5.0 °F 85% 29.81 in 0.8 mi NNW 20.7 mph 31.1 mph 0.00 in Snow Light Snow
9:20 PM 8.6 °F -10.0 °F 3.2 °F 79% 29.81 in 1.2 mi North 18.4 mph 32.2 mph 0.00 in   Haze
9:25 PM 8.6 °F -7.7 °F 3.2 °F 79% 29.81 in 2.0 mi North 13.8 mph 31.1 mph 0.00 in   Overcast
9:45 PM 8.6 °F -11.9 °F 3.2 °F 79% 29.81 in 1.8 mi NNW 23.0 mph 32.2 mph 0.00 in   Mostly Cloudy
9:53 PM 8.1 °F -10.7 °F 3.0 °F 80% 29.78 in 3.0 mi North 18.4 mph 29.9 mph 0.00 in   Haze
10:06 PM 8.6 °F -11.9 °F 3.2 °F 79% 29.81 in 2.5 mi North 23.0 mph 31.1 mph N/A   Mostly Cloudy
10:53 PM 8.1 °F -11.7 °F 3.9 °F 83% 29.78 in 2.5 mi North 20.7 mph 27.6 mph 0.00 in Snow Light Snow
11:06 PM 8.6 °F -10.0 °F 3.2 °F 79% 29.82 in 1.8 mi NNW 18.4 mph 28.8 mph 0.00 in   Overcast
11:36 PM 6.8 °F -13.8 °F 3.2 °F 85% 29.82 in 2.0 mi North 21.9 mph 27.6 mph 0.00 in   Overcast
11:53 PM 8.1 °F -10.7 °F 3.0 °F 80% 29.80 in 2.5 mi North 18.4 mph 29.9 mph 0.00 in   Haze